• En España
  • Lista de países
  • Para 7 días
  • Temperatura del agua
  • Mapa Satelital
  • El tiempo en el mapa
  • Informadores
  • user-avatar
    Iniciar sesión

    Tiempo cada hora Shaki

    Hoy, 24 Septiembre, Domingo

    Tiempo Temperatura Precipitaciones Viento Presión Humedad
    00:00 +23°C° 0,1 mm 2 mps 737 mmHg 59%
    01:00 +23°C° 0,1 mm 2 mps 738 mmHg 60%
    02:00 +21°C° 0,1 mm 2 mps 738 mmHg 62%
    03:00 +22°C° 0 mm 1 mps 737 mmHg 64%
    04:00 +22°C° 0 mm 1 mps 737 mmHg 65%
    05:00 +21°C° 0 mm 1 mps 738 mmHg 66%
    06:00 +21°C° 0 mm 1 mps 738 mmHg 66%
    07:00 +23°C° 0 mm 1 mps 738 mmHg 61%
    08:00 +25°C° 0 mm 1 mps 738 mmHg 55%
    09:00 +27°C° 0 mm 2 mps 739 mmHg 49%
    10:00 +28°C° 0 mm 2 mps 738 mmHg 47%
    11:00 +29°C° 0 mm 2 mps 738 mmHg 44%
    12:00 +29°C° 0 mm 3 mps 738 mmHg 41%
    13:00 +30°C° 0 mm 3 mps 738 mmHg 40%
    14:00 +30°C° 0 mm 3 mps 738 mmHg 40%
    15:00 +30°C° 0 mm 3 mps 738 mmHg 39%
    16:00 +28°C° 0 mm 3 mps 738 mmHg 44%
    17:00 +27°C° 0 mm 2 mps 738 mmHg 49%
    18:00 +25°C° 0 mm 2 mps 738 mmHg 53%
    19:00 +25°C° 0 mm 2 mps 738 mmHg 56%
    20:00 +24°C° 0 mm 3 mps 739 mmHg 59%
    21:00 +22°C° 0 mm 3 mps 739 mmHg 62%
    22:00 +22°C° 0 mm 3 mps 739 mmHg 66%
    23:00 +21°C° 0 mm 2 mps 739 mmHg 70%

    Mañana, 25 Septiembre, Lunes

    Tiempo Temperatura Precipitaciones Viento Presión Humedad
    00:00 +20°C° 0 mm 2 mps 739 mmHg 73%
    01:00 +20°C° 0 mm 2 mps 739 mmHg 75%
    02:00 +21°C° 0 mm 1 mps 739 mmHg 76%
    03:00 +20°C° 0 mm 1 mps 739 mmHg 78%
    04:00 +20°C° 0 mm 1 mps 739 mmHg 78%
    05:00 +20°C° 0 mm 1 mps 739 mmHg 79%
    06:00 +18°C° 0 mm 0 mps 739 mmHg 79%
    07:00 +21°C° 0 mm 1 mps 739 mmHg 72%
    08:00 +23°C° 0 mm 1 mps 739 mmHg 64%
    09:00 +25°C° 0 mm 1 mps 739 mmHg 57%
    10:00 +26°C° 0 mm 2 mps 739 mmHg 53%
    11:00 +27°C° 0 mm 2 mps 739 mmHg 49%
    12:00 +28°C° 0 mm 2 mps 739 mmHg 45%
    13:00 +28°C° 0 mm 2 mps 738 mmHg 44%
    14:00 +28°C° 0 mm 2 mps 738 mmHg 42%
    15:00 +29°C° 0 mm 2 mps 738 mmHg 41%
    16:00 +28°C° 0 mm 2 mps 738 mmHg 44%
    17:00 +26°C° 0 mm 2 mps 738 mmHg 48%
    18:00 +25°C° 0 mm 2 mps 738 mmHg 52%
    19:00 +25°C° 0 mm 3 mps 738 mmHg 54%
    20:00 +24°C° 0 mm 3 mps 739 mmHg 56%
    21:00 +22°C° 0 mm 4 mps 739 mmHg 58%
    22:00 +22°C° 0 mm 4 mps 739 mmHg 59%
    23:00 +21°C° 0 mm 3 mps 739 mmHg 61%

    Pasado mañana, 26 Septiembre, Martes

    Tiempo Temperatura Precipitaciones Viento Presión Humedad
    00:00 +20°C° 0 mm 3 mps 739 mmHg 62%
    01:00 +20°C° 0 mm 3 mps 738 mmHg 63%
    02:00 +19°C° 0 mm 3 mps 738 mmHg 63%
    03:00 +19°C° 0 mm 2 mps 738 mmHg 64%
    04:00 +18°C° 0 mm 2 mps 738 mmHg 63%
    05:00 +18°C° 0 mm 2 mps 738 mmHg 63%
    06:00 +18°C° 0 mm 2 mps 738 mmHg 63%
    07:00 +19°C° 0 mm 2 mps 738 mmHg 58%
    08:00 +21°C° 0 mm 2 mps 738 mmHg 53%
    09:00 +24°C° 0 mm 3 mps 738 mmHg 48%
    10:00 +25°C° 0 mm 3 mps 738 mmHg 46%
    11:00 +26°C° 0 mm 3 mps 737 mmHg 43%
    12:00 +26°C° 0 mm 3 mps 737 mmHg 41%
    13:00 +27°C° 0 mm 3 mps 737 mmHg 40%
    14:00 +27°C° 0 mm 3 mps 737 mmHg 40%
    15:00 +27°C° 0 mm 3 mps 737 mmHg 40%
    16:00 +25°C° 0 mm 3 mps 737 mmHg 45%
    17:00 +24°C° 0 mm 3 mps 737 mmHg 50%
    18:00 +22°C° 0 mm 3 mps 737 mmHg 56%
    19:00 +21°C° 0 mm 4 mps 737 mmHg 60%
    20:00 +20°C° 0 mm 4 mps 737 mmHg 65%
    21:00 +20°C° 0 mm 5 mps 738 mmHg 70%
    22:00 +19°C° 0 mm 4 mps 738 mmHg 71%
    23:00 +19°C° 0 mm 4 mps 737 mmHg 72%

    27 Septiembre, Miércoles

    Tiempo Temperatura Precipitaciones Viento Presión Humedad
    00:00 +19°C° 0 mm 3 mps 737 mmHg 74%
    01:00 +18°C° 0,1 mm 3 mps 737 mmHg 74%
    02:00 +18°C° 0,1 mm 2 mps 737 mmHg 74%
    03:00 +18°C° 0,1 mm 2 mps 737 mmHg 74%
    04:00 +18°C° 0,2 mm 2 mps 737 mmHg 74%
    05:00 +18°C° 0,2 mm 2 mps 737 mmHg 74%
    06:00 +19°C° 0,2 mm 1 mps 737 mmHg 74%
    07:00 +18°C° 0,1 mm 2 mps 737 mmHg 73%
    08:00 +18°C° 0,1 mm 2 mps 737 mmHg 72%
    09:00 +19°C° 0,1 mm 2 mps 737 mmHg 70%
    10:00 +19°C° 0,1 mm 2 mps 737 mmHg 69%
    11:00 +19°C° 0,1 mm 2 mps 737 mmHg 68%
    12:00 +20°C° 0,1 mm 2 mps 737 mmHg 67%
    13:00 +20°C° 0 mm 2 mps 737 mmHg 66%
    14:00 +20°C° 0 mm 2 mps 737 mmHg 64%
    15:00 +21°C° 0 mm 3 mps 737 mmHg 63%
    16:00 +20°C° 0 mm 3 mps 737 mmHg 69%
    17:00 +19°C° 0 mm 2 mps 737 mmHg 74%
    18:00 +18°C° 0 mm 2 mps 737 mmHg 80%
    19:00 +17°C° 0,2 mm 2 mps 737 mmHg 82%
    20:00 +17°C° 0,2 mm 2 mps 738 mmHg 84%
    21:00 +17°C° 0,2 mm 2 mps 738 mmHg 86%
    22:00 +17°C° 0,4 mm 2 mps 738 mmHg 87%
    23:00 +16°C° 0,4 mm 2 mps 738 mmHg 88%

    28 Septiembre, Jueves

    Tiempo Temperatura Precipitaciones Viento Presión Humedad
    00:00 +16°C° 0,4 mm 2 mps 738 mmHg 88%
    01:00 +16°C° 0,1 mm 2 mps 738 mmHg 88%
    02:00 +16°C° 0,1 mm 2 mps 738 mmHg 87%
    03:00 +16°C° 0,1 mm 2 mps 738 mmHg 86%
    04:00 +16°C° 0,1 mm 2 mps 738 mmHg 86%
    05:00 +16°C° 0,1 mm 2 mps 738 mmHg 87%
    06:00 +15°C° 0,1 mm 2 mps 738 mmHg 87%
    07:00 +16°C° 0,7 mm 3 mps 738 mmHg 85%
    08:00 +16°C° 0,7 mm 3 mps 739 mmHg 84%
    09:00 +17°C° 0,7 mm 3 mps 739 mmHg 83%
    10:00 +17°C° 0,3 mm 3 mps 739 mmHg 82%
    11:00 +17°C° 0,3 mm 3 mps 739 mmHg 82%
    12:00 +17°C° 0,3 mm 3 mps 739 mmHg 81%
    13:00 +17°C° 0,1 mm 3 mps 739 mmHg 80%
    14:00 +17°C° 0,1 mm 3 mps 739 mmHg 80%
    15:00 +17°C° 0,1 mm 3 mps 740 mmHg 79%
    16:00 +17°C° 0,1 mm 3 mps 740 mmHg 81%
    17:00 +16°C° 0,1 mm 2 mps 740 mmHg 83%
    18:00 +16°C° 0,1 mm 2 mps 740 mmHg 85%
    19:00 +16°C° 0,2 mm 2 mps 741 mmHg 85%
    20:00 +16°C° 0,2 mm 2 mps 741 mmHg 85%
    21:00 +15°C° 0,2 mm 2 mps 741 mmHg 85%
    22:00 +15°C° 0,2 mm 1 mps 741 mmHg 84%
    23:00 +15°C° 0,2 mm 1 mps 741 mmHg 83%

    29 Septiembre, Viernes

    Tiempo Temperatura Precipitaciones Viento Presión Humedad
    00:00 +15°C° 0,2 mm 1 mps 741 mmHg 82%
    01:00 +15°C° 0,3 mm 1 mps 741 mmHg 82%
    02:00 +15°C° 0,3 mm 1 mps 740 mmHg 82%
    03:00 +15°C° 0,3 mm 1 mps 740 mmHg 82%
    04:00 +15°C° 0,2 mm 1 mps 740 mmHg 82%
    05:00 +15°C° 0,2 mm 1 mps 740 mmHg 83%
    06:00 +15°C° 0,2 mm 1 mps 741 mmHg 84%
    07:00 +15°C° 0,1 mm 2 mps 740 mmHg 81%
    08:00 +16°C° 0,1 mm 2 mps 740 mmHg 78%
    09:00 +17°C° 0,1 mm 2 mps 740 mmHg 76%
    10:00 +17°C° 0 mm 2 mps 740 mmHg 72%
    11:00 +18°C° 0 mm 2 mps 740 mmHg 69%
    12:00 +19°C° 0 mm 3 mps 740 mmHg 66%
    13:00 +19°C° 0 mm 3 mps 739 mmHg 64%
    14:00 +20°C° 0 mm 2 mps 739 mmHg 62%
    15:00 +20°C° 0 mm 2 mps 739 mmHg 59%
    16:00 +19°C° 0 mm 2 mps 739 mmHg 64%
    17:00 +18°C° 0 mm 2 mps 739 mmHg 69%
    18:00 +17°C° 0 mm 2 mps 739 mmHg 74%
    19:00 +17°C° 0 mm 2 mps 739 mmHg 74%
    20:00 +17°C° 0 mm 2 mps 739 mmHg 73%
    21:00 +16°C° 0 mm 2 mps 739 mmHg 72%
    22:00 +17°C° 0 mm 2 mps 738 mmHg 70%
    23:00 +17°C° 0 mm 2 mps 738 mmHg 69%
    Mostrar más